Date,TemperatureHighF,TemperatureAvgF,TemperatureLowF,DewpointHighF,DewpointAvgF,DewpointLowF,HumidityHigh,HumidityAvg,HumidityLow,PressureMaxIn,PressureMinIn,WindSpeedMaxMPH,WindSpeedAvgMPH,GustSpeedMaxMPH,PrecipitationSumIn
2013-1-1,44,36,30,36,30,-100,93,83,65,30.53,30.38,7,-10,7,0.00
2013-1-2,48,37,31,37,30,25,91,75,45,30.38,30.22,10,1,10,0.00
2013-1-3,47,37,29,36,29,24,93,75,43,30.23,30.11,16,2,16,0.21
2013-1-4,52,45,38,45,42,37,95,87,74,30.32,30.19,15,4,19,0.03
2013-1-5,47,44,42,41,38,34,91,78,68,30.22,30.13,21,2,21,0.08
2013-1-6,46,44,41,41,40,38,91,85,76,30.20,30.00,21,7,21,0.01
2013-1-7,51,47,42,48,42,-100,94,87,80,30.17,29.81,32,-2,32,0.04
2013-1-8,53,47,43,49,43,-100,96,88,82,30.18,29.75,41,-2,41,0.36
2013-1-9,51,42,37,48,39,35,94,90,82,29.97,29.69,25,4,25,0.92
2013-1-10,40,37,32,36,34,28,92,88,83,30.14,29.96,9,2,9,0.04
2013-1-11,38,32,29,32,28,24,93,83,65,30.36,30.14,8,1,8,0.00
2013-1-12,39,31,27,31,26,24,94,82,58,30.48,30.35,8,1,12,0.01
2013-1-13,38,32,26,30,28,25,94,84,65,30.52,30.47,6,1,6,0.01
2013-1-14,39,36,34,33,30,28,85,80,73,30.59,30.50,8,1,8,0.00
2013-1-15,45,38,33,36,32,30,90,80,63,30.71,30.59,9,1,9,0.00
2013-1-16,45,36,30,37,32,28,96,86,69,30.71,30.55,6,1,6,0.00
2013-1-17,40,35,30,36,33,28,96,93,88,30.55,30.32,6,1,6,0.01
2013-1-18,39,35,32,37,34,31,98,95,89,30.38,30.29,6,1,6,0.00
2013-1-19,37,35,32,35,33,31,97,94,89,30.42,30.36,7,1,7,0.00
2013-1-20,42,36,33,37,34,32,97,93,83,30.43,30.29,7,1,7,0.00
2013-1-21,38,34,32,36,33,31,97,95,90,30.31,30.16,10,2,10,0.00
2013-1-22,40,36,32,37,34,31,97,92,86,30.17,29.93,7,1,7,0.00
2013-1-23,44,42,40,41,38,34,94,86,74,30.16,29.86,14,2,14,0.26
2013-1-24,47,43,41,42,39,36,95,85,67,30.23,30.08,14,3,14,0.13
2013-1-25,52,47,43,45,43,39,97,86,72,30.08,29.95,16,3,16,0.05
2013-1-26,45,43,41,41,40,38,92,87,81,30.06,29.90,20,5,20,0.20
2013-1-27,43,42,41,40,38,37,92,87,84,30.08,30.01,21,6,21,0.04
2013-1-28,44,42,40,42,39,37,94,91,88,30.12,30.03,14,3,14,0.19
2013-1-29,48,46,43,46,44,41,95,93,88,30.36,30.11,18,3,18,0.31
2013-1-30,49,47,45,48,46,43,97,96,93,30.40,30.35,11,2,11,0.12
2013-1-31,50,48,46,47,46,44,97,92,81,30.42,30.31,27,5,27,0.07